| time (UTC) | temp F | wind direction | speed knots | gust knots | rain 1hr in | rain 24hr in | rain mn in | humidity % | barometer mb |
| 20260504185951 | 76 | 26 | 1.7 | 2.6 | 0.00 | 0.00 | 0.00 | 44 | 1014.6 |
| 20260504184446 | 77 | 42 | 4.3 | 5.2 | 0.00 | 0.00 | 0.00 | 39 | 1014.6 |
| 20260504182944 | 75 | 9 | 3.5 | 5.2 | 0.00 | 0.00 | 0.00 | 41 | 1014.7 |
| 20260504181440 | 75 | 48 | 1.7 | 2.6 | 0.00 | 0.00 | 0.00 | 40 | 1014.8 |
| 20260504175935 | 75 | 352 | 4.3 | 5.2 | 0.00 | 0.00 | 0.00 | 38 | 1014.9 |
| 20260504174433 | 74 | 16 | 3.5 | 4.3 | 0.00 | 0.00 | 0.00 | 39 | 1014.7 |
| 20260504172930 | 74 | 34 | 2.6 | 5.2 | 0.00 | 0.00 | 0.00 | 42 | 1014.8 |
| 20260504171425 | 74 | 32 | 2.6 | 2.6 | 0.00 | 0.00 | 0.00 | 44 | 1014.7 |
| 20260504081227 | 57 | 22 | 0.0 | 0.0 | 0.00 | 0.00 | 0.00 | 70 | 1014.2 |
| 20260504045646 | 63 | 227 | 0.9 | 0.9 | 0.00 | 0.00 | 0.00 | 55 | 1014.2 |
| 20260504044146 | 64 | 229 | 0.9 | 0.9 | 0.00 | 0.00 | 0.00 | 59 | 1014.3 |
| 20260504042644 | 65 | 172 | 0.0 | 0.9 | 0.00 | 0.00 | 0.00 | 54 | 1014.3 |
| 20260504041144 | 66 | 171 | 0.9 | 0.9 | 0.00 | 0.00 | 0.00 | 54 | 1014.3 |
| 20260504035640 | 67 | 76 | 0.9 | 0.9 | 0.00 | 0.00 | 0.00 | 50 | 1014.3 |
| 20260504034137 | 69 | 60 | 0.0 | 0.9 | 0.00 | 0.00 | 0.00 | 48 | 1014.2 |
| 20260504032635 | 72 | 92 | 0.9 | 0.9 | 0.00 | 0.00 | 0.00 | 43 | 1014.3 |
| 20260504031131 | 74 | 126 | 0.9 | 0.9 | 0.00 | 0.00 | 0.00 | 37 | 1014.3 |
| 20260504025627 | 74 | 43 | 0.0 | 0.0 | 0.00 | 0.00 | 0.00 | 38 | 1014.4 |
| 20260504024124 | 75 | 41 | 0.0 | 0.0 | 0.00 | 0.00 | 0.00 | 40 | 1014.4 |
| 20260504022619 | 76 | 42 | 0.0 | 0.9 | 0.00 | 0.00 | 0.00 | 35 | 1014.4 |
| 20260504021115 | 77 | 33 | 0.9 | 0.9 | 0.00 | 0.00 | 0.00 | 35 | 1014.7 |
| 20260504015611 | 77 | 32 | 0.0 | 0.0 | 0.00 | 0.00 | 0.00 | 35 | 1014.6 |
| 20260504014107 | 78 | 19 | 0.9 | 0.9 | 0.00 | 0.00 | 0.00 | 29 | 1014.8 |
| 20260504012604 | 78 | 23 | 0.9 | 1.7 | 0.00 | 0.00 | 0.00 | 31 | 1014.8 |
| 20260504011100 | 78 | 13 | 0.9 | 0.9 | 0.00 | 0.00 | 0.00 | 30 | 1014.9 |
| 20260504005600 | 79 | 29 | 1.7 | 2.6 | 0.00 | 0.00 | 0.00 | 32 | 1015.1 |
| 20260504004059 | 79 | 25 | 1.7 | 1.7 | 0.00 | 0.00 | 0.00 | 29 | 1015.1 |
| 20260504002554 | 79 | 37 | 1.7 | 1.7 | 0.00 | 0.00 | 0.00 | 29 | 1015.5 |
| 20260504001051 | 79 | 12 | 1.7 | 1.7 | 0.00 | 0.00 | 0.00 | 29 | 1015.5 |
| 20260503235550 | 79 | 3 | 0.9 | 0.9 | 0.00 | 0.00 | 0.00 | 31 | 1015.8 |
| 20260503234048 | 79 | 347 | 2.6 | 4.3 | 0.00 | 0.00 | 0.00 | 32 | 1015.8 |
| 20260503232544 | 79 | 49 | 2.6 | 2.6 | 0.00 | 0.00 | 0.00 | 30 | 1016.0 |
| 20260503231041 | 79 | 31 | 2.6 | 2.6 | 0.00 | 0.00 | 0.00 | 33 | 1016.4 |
| 20260503225538 | 79 | 31 | 2.6 | 4.3 | 0.00 | 0.00 | 0.00 | 35 | 1016.7 |
| 20260503224034 | 78 | 4 | 0.9 | 1.7 | 0.00 | 0.00 | 0.00 | 39 | 1016.8 |
| 20260503222531 | 77 | 0 | 2.6 | 4.3 | 0.00 | 0.00 | 0.00 | 36 | 1017.1 |
| 20260503221030 | 78 | 20 | 0.9 | 1.7 | 0.00 | 0.00 | 0.00 | 37 | 1017.3 |
| 20260503215526 | 78 | 13 | 2.6 | 2.6 | 0.00 | 0.00 | 0.00 | 35 | 1017.3 |
| 20260503214023 | 76 | 350 | 2.6 | 2.6 | 0.00 | 0.00 | 0.00 | 36 | 1017.4 |
| 20260503212521 | 76 | 36 | 2.6 | 2.6 | 0.00 | 0.00 | 0.00 | 40 | 1017.6 |
| 20260503211016 | 76 | 354 | 2.6 | 2.6 | 0.00 | 0.00 | 0.00 | 41 | 1017.7 |
| 20260503205512 | 76 | 120 | 1.7 | 1.7 | 0.00 | 0.00 | 0.00 | 38 | 1017.8 |
| 20260503204008 | 75 | 354 | 3.5 | 4.3 | 0.00 | 0.00 | 0.00 | 40 | 1017.9 |
| 20260503202506 | 75 | 75 | 2.6 | 2.6 | 0.00 | 0.00 | 0.00 | 40 | 1018.1 |
| 20260503201004 | 74 | 23 | 2.6 | 4.3 | 0.00 | 0.00 | 0.00 | 40 | 1018.5 |
| 20260503195500 | 73 | 29 | 3.5 | 5.2 | 0.00 | 0.00 | 0.00 | 43 | 1018.7 |
| 20260503194000 | 73 | 317 | 2.6 | 2.6 | 0.00 | 0.00 | 0.00 | 45 | 1018.9 |
| 20260503192500 | 73 | 9 | 3.5 | 5.2 | 0.00 | 0.00 | 0.00 | 44 | 1019.0 |
| 20260503190955 | 72 | 43 | 1.7 | 1.7 | 0.00 | 0.00 | 0.00 | 44 | 1018.7 |